sat.trackr.live / text

‹ back to catalog

STARLINK-34872

NORAD 65296 · 2025-184Z

PAYLOAD ACTIVE UNKNOWN

§ Identity

Operator
Country
US
Launch date
2025-08-22
Launch site
AFWTR
Launch vehicle
Mass (kg)
RCS (m²)

Purposes: comms

External: N2YO · Heavens-Above · Gunter

§ Orbital elements

Epoch: 2026-09-20T22:09:03.780288Z

Period
93.91 min
Inclination
97.2815°
Eccentricity
0.0001488
Mean motion
15.33434897 rev/d
Perigee alt
464.6 km
Apogee alt
466.6 km
Semi-major
6,843.7 km
B*
4.2936e-4
RAAN
311.9476°
Arg perigee
96.2976°
Mean anomaly
263.8436°
Rev number
6,079

§ Raw data

STARLINK-348721 65296U 25184Z   26263.92296042  .00013807  00000+0  42936-3 0  99962 65296  97.2815 311.9476 0001488  96.2976 263.8436 15.33434897 60794

JSON: /api/v1/satellites/65296 · /tle

For live sub-satellite position, see the globe view (requires WebGL).

§ Visibility from observer

Set your observer location to see the next 7 days of passes ≥ 10°. The values pass through the URL so the page stays shareable.

No JS? Fill the form by hand. The geolocation button needs JavaScript.